Regional Weather Roundup
Issued by NWS Sioux Falls, SD

Home | Current Version | Previous Version | Graphics & Text | Print | Product List | Glossary On
Versions: 1 2 3 4 5 6 7 8 9 10 11 12 13 14 15 16 17 18 19 20 21 22 23 24 25 26 27 28 29 30 31 32 33 34 35 36 37 38 39 40 41 42 43 44 45 46 47 48 49 50
000
ASUS43 KFSD 290310
RWRFSD

WEATHER ROUNDUP FOR SE SOUTH DAKOTA/SW MINNESOTA/NW IOWA
NATIONAL WEATHER SERVICE SIOUX FALLS SD
1000 PM CDT SUN AUG 28 2016

NOTE: "FAIR" INDICATES FEW OR NO CLOUDS BELOW 12,000 FEET WITH NO
SIGNIFICANT WEATHER AND OR OBSTRUCTIONS TO VISIBILITY.


SDZ038>040-050-052>070-290400-
SOUTHEAST SOUTH DAKOTA

CITY           SKY/WX    TMP DP  RH WIND       PRES   REMARKS
BROOKINGS        N/A    N/A N/A N/A MISG        N/A
CHAMBERLAIN    CLEAR     80  64  56 SE13      30.02R
HURON          PTCLDY    79  67  66 S14       30.00R
MADISON        FAIR      75  75 100 S12       30.09R
MITCHELL       PTCLDY    81  68  64 S14       30.04R
SIOUX FALLS    PTCLDY    81  70  69 S16G24    30.09R
WINNER         FAIR      81  63  54 S15       30.03R
YANKTON        CLEAR     79  70  73 SE14G20   30.07R
$$

MNZ071-072-080-081-089-090-097-098-290400-
SOUTHWEST MINNESOTA

CITY           SKY/WX    TMP DP  RH WIND       PRES   REMARKS
FAIRMONT       MOCLDY    72  69  90 S6        30.14R
JACKSON          N/A     73  68  83 S8        30.14R
LUVERNE        CLEAR     73  68  83 S9        30.11R
MARSHALL       CLEAR     76  72  87 S10       30.07R
MONTEVIDEO     CLEAR     75  72  88 S8        30.07S
REDWOOD FALLS  CLEAR     75  69  81 S12       30.08R
TRACY          CLEAR     76  72  87 S8        30.09S
WINDOM         PTCLDY    73  70  88 SE8       30.12R
WORTHINGTON    PTCLDY    74  72  93 S9        30.13R
$$

IAZ001>003-012>014-020>022-031-032-NEZ013-014-SDZ071-290400-
NORTHWEST IOWA

CITY           SKY/WX    TMP DP  RH WIND       PRES   REMARKS
CHEROKEE       MOCLDY    69  66  89 CALM      30.12R
DENISON        CLEAR     66  66 100 CALM      30.10S
ESTHERVILLE    CLOUDY    71  68  90 S7        30.13R
LE MARS        PTCLDY    72  66  83 S6        30.11R
ORANGE CITY    PTCLDY    72  66  83 S5        30.12R
SHELDON        PTCLDY    70  68  94 SE6       30.11R
SIOUX CITY     MOCLDY    72  65  78 SE5       30.09R
SPENCER        PTCLDY    70  65  84 SE8       30.14R
STORM LAKE     MOCLDY    68  66  94 SE8       30.14S
$$

ABBREVIATIONS USED IN REMARKS
   TC - TEMPERATURE IN CELSIUS
  WCI - WIND CHILL INDEX
   HX - HEAT INDEX
  VSB - VISIBILITY





USA.gov is the U.S. government's official web portal to all federal, state and local government web resources and services.